Weather History for KRDM - January, 2013

Change the Weather History Date:

Sunday, January 27, 2013

  Actual Average Record
Temperature  
Mean Temperature 31 °F 34 °F  
Max Temperature 40 °F 44 °F 61 °F (1984)
Min Temperature 22 °F 24 °F -22 °F (1957)
Degree Days  
Heating Degree Days 34 31  
Month to date heating degree days 980 875  
Since 1 July heating degree days 3538 3715  
Cooling Degree Days 0 0  
Month to date cooling degree days 0 0  
Year to date cooling degree days 0 0  
Moisture  
Dew Point 23 °F    
Average Humidity 66    
Maximum Humidity 88    
Minimum Humidity 44    
Precipitation  
Precipitation T in 0.03 in 0.40 in (1959)
Month to date precipitation 0.41 0.87  
Year to date precipitation 0.41 0.87  
Sea Level Pressure  
Sea Level Pressure 30.06 in    
Wind  
Wind Speed 5 mph (SSW)    
Max Wind Speed 23 mph    
Max Gust Speed 28 mph    
Visibility 10 miles    
Events Snow    
T = Trace of Precipitation, MM = Missing Value Source: NWS Daily Summary

Daily Weather History Graph

Daily Weather History Graph

Search for Another Location

Airport or City:

Trip Planner

Search our weather history database for the weather conditions in past years. The results will help you decide how hot, cold, wet, or windy it might be!

Date:

Astronomy

Jan. 27, 2013 Rise Set
Actual Time 7:27 AM PST 5:07 PM PST
Civil Twilight 6:56 AM PST 5:39 PM PST
Nautical Twilight 6:21 AM PST 6:14 PM PST
Astronomical Twilight 5:47 AM PST 6:48 PM PST
Moon 6:11 PM PST (1/27) 7:19 AM PST (1/27)
Length of Visible Light 10h 42m
Length of Day
9h 40m
Full, 100% of the Moon is Illuminated
Jan 27
Full
Feb 3
Last Quarter
Feb 9
New
Feb 17
First Quarter
Feb 25
Full

Hourly Weather History & Observations

Time (PST) Temp. Windchill Dew Point Humidity Pressure Visibility Wind Dir Wind Speed Gust Speed Precip Events Conditions
12:56 AM 26.1 °F 20.5 °F 21.9 °F 84% 30.03 in 10.0 mi SW 4.6 mph - N/A   Clear
1:56 AM 24.1 °F - 21.0 °F 88% 30.05 in 10.0 mi Calm Calm - N/A   Clear
2:56 AM 24.1 °F - 19.9 °F 84% 30.06 in 10.0 mi Calm Calm - N/A   Mostly Cloudy
3:56 AM 25.0 °F - 19.9 °F 81% 30.05 in 10.0 mi Calm Calm - N/A   Clear
4:56 AM 25.0 °F 20.7 °F 21.9 °F 88% 30.07 in 10.0 mi South 3.5 mph - N/A   Overcast
5:56 AM 25.0 °F 18.1 °F 21.9 °F 88% 30.06 in 10.0 mi SSE 5.8 mph - N/A   Overcast
6:56 AM 26.1 °F 21.9 °F 21.9 °F 84% 30.07 in 10.0 mi South 3.5 mph - N/A   Overcast
7:56 AM 26.1 °F - 21.9 °F 84% 30.09 in 10.0 mi Calm Calm - N/A   Overcast
8:56 AM 30.0 °F 25.2 °F 23.0 °F 75% 30.09 in 10.0 mi SSE 4.6 mph - N/A   Clear
9:56 AM 34.0 °F 31.0 °F 23.0 °F 64% 30.10 in 10.0 mi SW 3.5 mph - N/A   Clear
10:56 AM 37.9 °F 32.1 °F 23.0 °F 55% 30.10 in 10.0 mi WNW 8.1 mph - N/A   Scattered Clouds
11:56 AM 39.0 °F 31.4 °F 19.9 °F 46% 30.07 in 10.0 mi West 12.7 mph 23.0 mph N/A   Clear
12:56 PM 39.0 °F 31.0 °F 19.0 °F 45% 30.06 in 10.0 mi West 13.8 mph 21.9 mph N/A   Clear
1:56 PM 37.0 °F 28.1 °F 19.0 °F 48% 30.05 in 10.0 mi NW 15.0 mph 25.3 mph N/A   Partly Cloudy
2:56 PM 36.0 °F 30.3 °F 21.0 °F 55% 30.05 in 10.0 mi NNW 6.9 mph - N/A   Overcast
3:56 PM 35.1 °F 28.6 °F 21.0 °F 57% 30.06 in 10.0 mi South 8.1 mph - N/A   Overcast
4:56 PM 32.0 °F 27.5 °F 24.1 °F 73% 30.06 in 10.0 mi ESE 4.6 mph - N/A   Overcast
5:56 PM 32.0 °F 28.7 °F 24.1 °F 73% 30.06 in 10.0 mi NE 3.5 mph - N/A   Overcast
6:56 PM 32.0 °F 26.4 °F 24.1 °F 73% 30.05 in 10.0 mi East 5.8 mph - N/A   Overcast
7:56 PM 32.0 °F - 25.0 °F 75% 30.04 in 10.0 mi Calm Calm - N/A   Overcast
8:56 PM 30.9 °F - 26.1 °F 82% 30.03 in 10.0 mi Calm Calm - N/A   Overcast
9:56 PM 30.9 °F - 27.0 °F 85% 30.03 in 10.0 mi Calm Calm - N/A   Overcast
10:56 PM 30.9 °F 27.5 °F 27.0 °F 85% 30.01 in 4.0 mi ESE 3.5 mph - 0.00 in Snow Light Snow
11:56 PM 30.9 °F - 28.0 °F 89% 30.01 in 10.0 mi Calm Calm - 0.00 in   Overcast